Location: Newark
(13.8117°N, 3.6025°W)
Time: 10:24:05
(UTC+00:00)

A-11 Canister half - Visible Passes

Search period start: 20 August 2019 00:00
Search period end: 30 August 2019 00:00
Orbit: 1526 x 1683 km, 47.3° (Epoch: 19 August)

Date Brightness Start Highest point End Pass type
(mag) Time Alt. Az. Time Alt. Az. Time Alt. Az.
20 Aug 9.3 19:48:03 10° NNW 19:57:52 56° NE 20:02:37 32° ESE visible
20 Aug 10.2 21:54:02 10° WNW 22:00:57 32° WSW 22:00:57 32° WSW visible
21 Aug 9.4 19:26:27 10° NNW 19:36:12 52° NE 19:42:34 23° ESE visible
21 Aug 9.9 21:32:12 10° WNW 21:40:54 37° SW 21:40:54 37° SW visible
22 Aug 9.5 19:04:51 10° NNW 19:14:31 49° NE 19:22:35 15° ESE visible
22 Aug 9.8 21:10:23 10° WNW 21:19:24 40° SW 21:20:56 38° SSW visible
23 Aug 9.5 18:43:15 10° NNW 18:52:50 46° NE 19:02:08 10° ESE visible
23 Aug 9.8 20:48:34 10° WNW 20:57:47 43° SW 21:01:03 34° SSW visible
24 Aug 9.8 20:26:47 10° WNW 20:36:09 46° SW 20:41:14 27° S visible
25 Aug 9.7 20:05:01 10° WNW 20:14:32 49° SW 20:21:29 19° SSE visible
26 Aug 9.7 19:43:15 10° NW 19:52:55 53° SW 20:01:49 12° SSE visible
27 Aug 9.6 19:21:31 10° NW 19:31:17 57° SW 19:40:49 10° SSE visible
28 Aug 9.6 18:59:46 10° NW 19:09:39 61° SW 19:19:17 10° SSE visible
29 Aug 9.6 18:38:03 10° NW 18:48:00 65° SW 18:57:45 10° SSE visible
